Zurück zum Katalog

HULIANWANG DIGUI-87

AktivKommunikationLEO
NORAD 65995·PAYLOAD·🇨🇳 China

Gestartet Oct 16, 2025 von Wenchang Space Launch Site

Loading…

Nächste Überflüge (nächste 24 Stunden)

TLE

AktuellSource: Space-Track

Epoche: Sep 14, 2026, 22:18 UTC

1 65995U 25231A   26257.92928871 -.00000092  00000-0  69899-4 0  9992
2 65995  49.9986 213.9502 0000315  20.4023 339.6862 13.29328003 44829

Verfolge HULIANWANG DIGUI-87 in Echtzeit mit AllMySat

Download on the App Store